Charlevoix, MI

1:39 AM EDT on October 18, 2017 (GMT -0400)
Charlevoix Municipal

Weather History for KCVX - September, 2013

Change the Weather History Date:

Wednesday, September 18, 2013

  Actual Average Record
Temperature  
Mean Temperature 58 °F -  
Max Temperature 70 °F 69 °F 82 °F (2007)
Min Temperature 46 °F 52 °F 44 °F (2011)
Degree Days  
Heating Degree Days 7    
Growing Degree Days 8 (Base 50)    
Moisture  
Dew Point 52 °F    
Average Humidity 75    
Maximum Humidity 96    
Minimum Humidity 59    
Precipitation  
Precipitation 0.00 in - - ()
Sea Level Pressure  
Sea Level Pressure 30.07 in    
Wind  
Wind Speed 5 mph (SSE)    
Max Wind Speed 9 mph    
Max Gust Speed 17 mph    
Visibility 10 miles    
Events      
Averages and records for this station are not official NWS values.
T = Trace of Precipitation, MM = Missing Value Source: NWS Daily Summary

Daily Weather History Graph

Daily Weather History Graph

Search for Another Location

Airport or City:

Trip Planner

Search our weather history database for the weather conditions in past years. The results will help you decide how hot, cold, wet, or windy it might be!

Date:

Astronomy

Sep. 18, 2013 Rise Set
Actual Time 7:23 AM EDT 7:45 PM EDT
Civil Twilight 6:53 AM EDT 8:15 PM EDT
Nautical Twilight 6:19 AM EDT 8:50 PM EDT
Astronomical Twilight 5:43 AM EDT 9:25 PM EDT
Moon 7:07 PM EDT 6:24 AM EDT
Length of Visible Light 13h 21m
Length of Day
12h 22m
Waxing Gibbous, 99% of the Moon is Illuminated
Sep 18
Waxing Gibbous
Sep 19
Full
Sep 26
Last Quarter
Oct 4
New
Oct 11
First Quarter

Hourly Weather History & Observations

Time (EDT) Temp. Dew Point Humidity Pressure Visibility Wind Dir Wind Speed Gust Speed Precip Events Conditions
12:15 AM 47.5 °F 46.4 °F 96% 30.20 in 10.0 mi SSE 4.6 mph - N/A   Clear
12:34 AM 47.7 °F 46.2 °F 95% 30.20 in 10.0 mi SSE 4.6 mph - N/A   Clear
12:55 AM 46.8 °F 45.7 °F 96% 30.19 in 10.0 mi SSE 4.6 mph - N/A   Clear
1:15 AM 48.2 °F 46.4 °F 93% 30.19 in 7.0 mi SE 4.6 mph - N/A   Clear
1:34 AM 47.5 °F 45.9 °F 94% 30.19 in 7.0 mi SE 4.6 mph - N/A   Clear
1:55 AM 48.2 °F 45.9 °F 92% 30.18 in 7.0 mi SE 4.6 mph - N/A   Clear
2:14 AM 47.5 °F 45.1 °F 92% 30.18 in 10.0 mi SE 5.8 mph - N/A   Clear
2:35 AM 47.1 °F 44.6 °F 91% 30.17 in 10.0 mi SSE 4.6 mph - N/A   Clear
2:55 AM 48.2 °F 44.6 °F 87% 30.17 in 10.0 mi SE 4.6 mph - N/A   Clear
3:14 AM 47.7 °F 44.6 °F 89% 30.16 in 10.0 mi SE 4.6 mph - N/A   Clear
3:35 AM 48.2 °F 45.3 °F 90% 30.16 in 10.0 mi SE 3.5 mph - N/A   Clear
3:55 AM 49.1 °F 46.4 °F 90% 30.15 in 10.0 mi Calm Calm - N/A   Clear
4:14 AM 49.6 °F 46.8 °F 90% 30.15 in 10.0 mi SE 4.6 mph - N/A   Clear
4:35 AM 49.5 °F 47.1 °F 92% 30.14 in 10.0 mi SE 4.6 mph - N/A   Clear
4:55 AM 50.4 °F 47.7 °F 90% 30.14 in 10.0 mi SSE 5.8 mph - N/A   Clear
5:14 AM 50.9 °F 48.2 °F 90% 30.14 in 10.0 mi SSE 5.8 mph - N/A   Clear
5:35 AM 50.9 °F 48.2 °F 90% 30.14 in 10.0 mi SSE 5.8 mph - N/A   Clear
5:55 AM 51.1 °F 48.4 °F 90% 30.14 in 10.0 mi SSE 6.9 mph - N/A   Clear
6:14 AM 51.6 °F 48.9 °F 90% 30.13 in 10.0 mi South 6.9 mph - N/A   Clear
6:35 AM 52.5 °F 49.3 °F 89% 30.14 in 10.0 mi SSE 5.8 mph - N/A   Clear
6:55 AM 52.7 °F 49.1 °F 88% 30.14 in 10.0 mi SSE 6.9 mph - N/A   Clear
7:14 AM 52.7 °F 49.1 °F 88% 30.14 in 10.0 mi SSE 6.9 mph - N/A   Clear
7:35 AM 52.7 °F 48.7 °F 86% 30.14 in 10.0 mi SSE 8.1 mph - N/A   Clear
7:54 AM 53.1 °F 48.7 °F 85% 30.14 in 10.0 mi SSE 5.8 mph - N/A   Clear
8:15 AM 53.4 °F 48.7 °F 84% 30.14 in 10.0 mi SSE 5.8 mph - N/A   Clear
8:35 AM 53.8 °F 48.4 °F 82% 30.13 in 10.0 mi SE 5.8 mph - N/A   Clear
8:54 AM 54.5 °F 48.4 °F 80% 30.13 in 10.0 mi SSE 5.8 mph - N/A   Clear
9:15 AM 55.0 °F 48.6 °F 79% 30.13 in 10.0 mi SE 4.6 mph - N/A   Scattered Clouds
9:34 AM 55.8 °F 48.6 °F 77% 30.12 in 10.0 mi SE 4.6 mph - N/A   Overcast
9:55 AM 57.9 °F 49.6 °F 74% 30.12 in 10.0 mi SSE 6.9 mph - N/A   Overcast
10:15 AM 61.9 °F 50.7 °F 67% 30.11 in 10.0 mi SSE 6.9 mph - N/A   Overcast
10:34 AM 61.9 °F 50.5 °F 66% 30.11 in 10.0 mi SSE 5.8 mph - N/A   Overcast
10:55 AM 63.1 °F 51.6 °F 66% 30.10 in 10.0 mi SSE 6.9 mph - N/A   Overcast
11:15 AM 65.3 °F 51.6 °F 61% 30.10 in 10.0 mi South 9.2 mph - N/A   Overcast
11:34 AM 65.7 °F 52.0 °F 61% 30.09 in 10.0 mi SSE 5.8 mph - N/A   Overcast
11:55 AM 66.7 °F 52.7 °F 61% 30.09 in 10.0 mi SSE 5.8 mph - N/A   Mostly Cloudy
12:14 PM 67.3 °F 54.1 °F 63% 30.09 in 10.0 mi South 3.5 mph - N/A   Mostly Cloudy
12:35 PM 68.4 °F 53.6 °F 59% 30.08 in 10.0 mi South 3.5 mph - N/A   Overcast
12:55 PM 68.7 °F 54.1 °F 60% 30.08 in 10.0 mi SSW 9.2 mph - N/A   Overcast
1:14 PM 67.3 °F 54.1 °F 63% 30.07 in 10.0 mi South 8.1 mph 17.3 mph N/A   Scattered Clouds
1:35 PM 68.4 °F 54.9 °F 62% 30.07 in 10.0 mi South 8.1 mph - N/A   Scattered Clouds
1:55 PM 68.2 °F 55.8 °F 64% 30.06 in 10.0 mi South 6.9 mph - N/A   Mostly Cloudy
2:14 PM 70.2 °F 55.9 °F 61% 30.05 in 10.0 mi South 8.1 mph - N/A   Scattered Clouds
2:35 PM 69.3 °F 55.2 °F 61% 30.04 in 10.0 mi South 9.2 mph - N/A   Scattered Clouds
2:54 PM 68.5 °F 54.9 °F 62% 30.03 in 10.0 mi South 6.9 mph - N/A   Mostly Cloudy
3:14 PM 68.9 °F 55.6 °F 62% 30.03 in 10.0 mi South 6.9 mph - N/A   Overcast
3:35 PM 69.6 °F 55.8 °F 61% 30.02 in 10.0 mi South 9.2 mph - N/A   Overcast
3:54 PM 68.9 °F 55.2 °F 62% 30.02 in 10.0 mi South 6.9 mph 16.1 mph N/A   Overcast
4:15 PM 70.5 °F 55.9 °F 60% 30.00 in 10.0 mi South 9.2 mph - N/A   Overcast
4:35 PM 69.8 °F 56.3 °F 62% 30.00 in 10.0 mi South 5.8 mph - N/A   Overcast
4:54 PM 69.4 °F 55.8 °F 62% 30.00 in 10.0 mi South 8.1 mph - N/A   Overcast
5:15 PM 69.3 °F 56.1 °F 63% 30.00 in 10.0 mi SSE 5.8 mph - N/A   Overcast
5:35 PM 69.8 °F 56.7 °F 63% 29.98 in 10.0 mi SSE 6.9 mph - N/A   Overcast
5:54 PM 70.9 °F 57.2 °F 62% 29.98 in 10.0 mi South 6.9 mph - N/A   Mostly Cloudy
6:15 PM 70.3 °F 57.2 °F 63% 29.98 in 10.0 mi SSE 5.8 mph - N/A   Mostly Cloudy
6:35 PM 70.2 °F 56.5 °F 62% 29.97 in 10.0 mi SSE 5.8 mph - N/A   Mostly Cloudy
6:54 PM 69.4 °F 56.7 °F 64% 29.97 in 10.0 mi SSE 3.5 mph - N/A   Mostly Cloudy
7:15 PM 68.9 °F 57.2 °F 66% 29.97 in 10.0 mi SE 3.5 mph - N/A   Overcast
7:34 PM 68.9 °F 57.6 °F 67% 29.97 in 10.0 mi SE 3.5 mph - N/A   Scattered Clouds
7:54 PM 67.6 °F 58.1 °F 71% 29.97 in 10.0 mi SE 3.5 mph - N/A   Mostly Cloudy
8:15 PM 67.1 °F 58.1 °F 73% 29.97 in 10.0 mi SE 4.6 mph - N/A   Overcast
8:34 PM 67.1 °F 57.9 °F 72% 29.97 in 10.0 mi SE 4.6 mph - N/A   Overcast
8:54 PM 67.3 °F 58.1 °F 72% 29.97 in 10.0 mi SE 5.8 mph - N/A   Overcast
9:15 PM 67.8 °F 58.1 °F 71% 29.98 in 10.0 mi South 5.8 mph - N/A   Overcast
9:34 PM 68.0 °F 57.9 °F 70% 29.98 in 10.0 mi SSE 5.8 mph - N/A   Overcast
9:55 PM 67.3 °F 57.7 °F 71% 29.98 in 10.0 mi SSE 4.6 mph - N/A   Mostly Cloudy
10:15 PM 66.9 °F 57.7 °F 72% 29.98 in 10.0 mi SSE 5.8 mph - N/A   Scattered Clouds
10:34 PM 67.1 °F 57.6 °F 71% 29.97 in 10.0 mi SSE 3.5 mph - N/A   Mostly Cloudy
10:55 PM 66.9 °F 57.6 °F 72% 29.97 in 10.0 mi SSE 4.6 mph - N/A   Mostly Cloudy
11:15 PM 66.2 °F 57.4 °F 73% 29.98 in 10.0 mi South 5.8 mph - N/A   Scattered Clouds
11:34 PM 66.7 °F 57.2 °F 71% 29.97 in 10.0 mi SSE 6.9 mph - N/A   Scattered Clouds
11:55 PM 66.7 °F 56.8 °F 70% 29.97 in 10.0 mi SSE 5.8 mph - N/A   Clear